Charlottetown, Prince Edward Island

3:41 PM ADT on May 25, 2017 (GMT -0300)
Charlottetown

Weather History for CYYG - August, 2013

Change the Weather History Date:

Monday, August 5, 2013

  Actual Average Record
Temperature  
Mean Temperature 64 °F -  
Max Temperature 74 °F 71 °F 84 °F (2012)
Min Temperature 55 °F 55 °F 53 °F (2011)
Growing Degree Days 14 (Base 50)    
Moisture  
Dew Point 59 °F    
Average Humidity 85    
Maximum Humidity 100    
Minimum Humidity 64    
Precipitation  
Precipitation 0.47 in 0.12 in - ()
Sea Level Pressure  
Sea Level Pressure 29.72 in    
Wind  
Wind Speed 5 mph ()    
Max Wind Speed 12 mph    
Max Gust Speed 18 mph    
Visibility 14.5 miles    
Events Fog , Rain , Thunderstorm    
Averages and records for this station are not official NWS values.
T = Trace of Precipitation, MM = Missing Value Source: Averaged Metar Reports

Daily Weather History Graph

Daily Weather History Graph

Search for Another Location

Airport or City:

Trip Planner

Search our weather history database for the weather conditions in past years. The results will help you decide how hot, cold, wet, or windy it might be!

Date:

Astronomy

Aug. 05, 2013 Rise Set
Actual Time 5:59 AM ADT 8:36 PM ADT
Civil Twilight 5:24 AM ADT 9:11 PM ADT
Nautical Twilight 4:41 AM ADT 9:53 PM ADT
Astronomical Twilight 3:51 AM ADT 10:43 PM ADT
Moon 4:50 AM ADT (8/5) 7:32 PM ADT (8/5)
Length of Visible Light 15h 46m
Length of Day
14h 37m
Waning Crescent, 2% of the Moon is Illuminated
Aug 5
Waning Crescent
Aug 6
New
Aug 14
First Quarter
Aug 20
Full
Aug 28
Last Quarter

Hourly Weather History & Observations

Time (ADT) Temp. Dew Point Humidity Pressure Visibility Wind Dir Wind Speed Gust Speed Precip Events Conditions
12:00 AM 64.4 °F 57.2 °F 77% 29.74 in 15.0 mi SW 5.8 mph - N/A   Partly Cloudy
1:00 AM 64.4 °F 59.0 °F 83% 29.73 in 15.0 mi SSW 8.1 mph - N/A   Clear
2:00 AM 60.8 °F 59.0 °F 94% 29.73 in 15.0 mi SW 3.5 mph - N/A   Clear
3:00 AM 62 °F 59 °F 88% 29.72 in 15 mi Calm Calm - -  
3:00 AM 62.6 °F 59.0 °F 88% 29.72 in 15.0 mi SW 3.5 mph - N/A   Clear
4:00 AM 57.2 °F 57.2 °F 100% 29.71 in 15.0 mi Calm Calm - N/A Fog Shallow Fog
5:00 AM 55.4 °F 55.4 °F 100% 29.72 in 15.0 mi West 3.5 mph - N/A Fog Shallow Fog
6:00 AM 57.2 °F 57.2 °F 100% 29.71 in 15.0 mi Variable 2.3 mph - N/A   Mostly Cloudy
7:00 AM 59.0 °F 57.2 °F 94% 29.72 in 15.0 mi Calm Calm - N/A Fog Shallow Fog
8:00 AM 62.6 °F 60.8 °F 94% 29.71 in 15.0 mi Calm Calm - N/A   Scattered Clouds
9:00 AM 65 °F 61 °F 84% 29.72 in 15 mi SSW 2.3 mph - -   Mostly Cloudy
9:00 AM 66.2 °F 60.8 °F 83% 29.72 in 15.0 mi South 2.3 mph - N/A   Mostly Cloudy
10:00 AM 68.0 °F 62.6 °F 83% 29.71 in 15.0 mi SSW 6.9 mph - N/A   Mostly Cloudy
11:00 AM 68.0 °F 62.6 °F 83% 29.72 in 15.0 mi SSW 2.3 mph - N/A   Mostly Cloudy
11:46 AM 71.6 °F 62.6 °F 73% 29.71 in 15.0 mi SSW 11.5 mph - N/A Thunderstorm Thunderstorm
12:00 PM 71.6 °F 62.6 °F 73% 29.70 in 15.0 mi SW 9.2 mph - N/A Thunderstorm Thunderstorm
1:00 PM 71.6 °F 59.0 °F 64% 29.69 in 15.0 mi WSW 8.1 mph - N/A Thunderstorm Thunderstorm
1:40 PM 68.0 °F 60.8 °F 78% 29.68 in 15.0 mi North 11.5 mph - N/A   Mostly Cloudy
2:00 PM 68.0 °F 59.0 °F 73% 29.69 in 15.0 mi NNW 9.2 mph - N/A   Mostly Cloudy
2:51 PM 68.0 °F 59.0 °F 73% 29.68 in 15.0 mi North 8.1 mph - N/A Thunderstorm Thunderstorm
3:00 PM 68 °F 60 °F 68% 29.68 in 15 mi NNE 6.9 mph - - Thunderstorm Thunderstorm
3:00 PM 68.0 °F 59.0 °F 73% 29.68 in 15.0 mi NNE 6.9 mph - N/A Thunderstorm Thunderstorm
3:05 PM 68.0 °F 59.0 °F 73% 29.69 in 15.0 mi North 9.2 mph - N/A Rain , Thunderstorm Light Thunderstorms and Rain
3:31 PM 64.4 °F 59.0 °F 83% 29.71 in 12.0 mi NE 3.5 mph - N/A Rain , Thunderstorm Thunderstorms with Small Hail
3:40 PM 62.6 °F 59.0 °F 88% 29.71 in 12.0 mi ENE 11.5 mph - N/A Rain , Thunderstorm Heavy Thunderstorms and Rain
3:47 PM 62.6 °F 59.0 °F 88% 29.71 in 12.0 mi North 9.2 mph 18.4 mph N/A Rain , Thunderstorm Heavy Thunderstorms and Rain
4:00 PM 60.8 °F 60.8 °F 100% 29.70 in 15.0 mi NNE 4.6 mph - N/A Rain , Thunderstorm Light Thunderstorms and Rain
5:00 PM 62.6 °F 59.0 °F 88% 29.73 in 15.0 mi West 5.8 mph - N/A Rain , Thunderstorm Light Thunderstorms and Rain
5:09 PM 62.6 °F 60.8 °F 94% 29.73 in 12.0 mi West 4.6 mph - N/A Rain , Thunderstorm Thunderstorms and Rain
5:26 PM 62.6 °F 60.8 °F 94% 29.73 in 12.0 mi SW 4.6 mph - N/A Rain , Thunderstorm Light Thunderstorms and Rain
5:46 PM 60.8 °F 59.0 °F 94% 29.73 in 12.0 mi West 8.1 mph - N/A Rain , Thunderstorm Thunderstorms and Rain
6:00 PM 60.8 °F 59.0 °F 94% 29.72 in 15.0 mi WSW 8.1 mph - N/A Rain , Thunderstorm Light Thunderstorms and Rain
6:20 PM 62.6 °F 59.0 °F 88% 29.72 in 15.0 mi WSW 9.2 mph - N/A   Mostly Cloudy
7:00 PM 64.4 °F 59.0 °F 83% 29.72 in 15.0 mi WSW 8.1 mph - N/A   Mostly Cloudy
8:00 PM 62.6 °F 59.0 °F 88% 29.74 in 15.0 mi WSW 10.4 mph - N/A   Mostly Cloudy
9:00 PM 62 °F 58 °F 82% 29.76 in 15 mi WSW 6.9 mph - -   Scattered Clouds
9:00 PM 62.6 °F 57.2 °F 82% 29.76 in 15.0 mi WSW 6.9 mph - N/A   Mostly Cloudy
10:00 PM 59.0 °F 57.2 °F 94% 29.78 in 15.0 mi West 2.3 mph - N/A   Scattered Clouds
11:00 PM 59.0 °F 57.2 °F 94% 29.79 in 15.0 mi West 3.5 mph - N/A   Partly Cloudy